Showing default

NEOSSAT, 39089

Orbit data source: Space-Track

NEOSSAT, 39089 is a payload satellite owned by CSA (CA) in SSO that was launched on Mon, 25 Feb 2013 UTC via a PSLV launch vehicle from the Sirharikota (SRI). Payload-class satellites include a variety of spacecraft equipped with specific instruments for various scientific and technological missions. These include communications satellites like Starlink; space stations such as the ISS; scientific satellites like the Hubble; Earth observation satellites from companies like Planet Labs, Umbra, and HawkEye 360; GPS; miniature CubeSats for education and research; and military/defense satellites.

Loading next visibility...
Identifier
39089, 2013-009D
Orbit
SSO
Country
Flag of CACA
Related business
Manufacturer
MSCI
Mission
Operational Civil Ast/Early Warn
Bus & Motor
MOST?, Unknown motor
Mass
74 kg wet, 74 kg dry
Launch date (UTC)
2013-02-25 (13 years ago)
Launch vehicle
PSLV
Launch site
Sirharikota (SRI)
Object type
Payload
Rocket body
Debris
Shape & HBR
Box + 1 Pan, 0.9 m
Radar Cross Section
2.340 m², Medium (>0.1 m² and < 1m²)

Expand to show TLE details & history
Last TLE update: 22 hours ago

TLE from 22 hours ago
0 NEOSSAT
1 39089U 13009D   26094.48057680  .00000288  00000-0  11425-3 0  9995
2 39089  98.4160 276.2696 0012168 105.0144 255.2390 14.35799961686167
Epoch: 2026-04-04T11:32Z
TLE epoch observation values (Epoch: 2026-04-04T11:32:01.835Z)
Latitude
Longitude
-89.53779°
Altitude
777.582 km
Speed
7.464 km/s
True Right ascension
18h 25m 04s
True Declination
0° 00' 00"
Sunlit
Object was in daylight at epoch
Visualization orbit readout
Latitude
Unknown
Longitude
Unknown
Altitude
Unknown
Speed
Unknown
Apparent Right ascension
Unknown
Apparent Declination
Unknown
Sunlit
N/A
Visualization observer readout
Local Sidereal Time
15:00:36
Azimuth
Unknown
Elevation
Unknown
Doppler factor
Unknown
Orbital elements
Apogee altitude
778.23 km
Perigee altitude
760.835 km
Semi-major axis
7,147.67 km
Eccentricity
0.00122
Inclination
98.416°
RAAN
276.2696°
Arg. of periapsis
105.0144°
True anomaly
255.10422°
Mean anomaly
255.239°
Eccentric anomaly
255.1716°
Mean motion
3.59167 °/min
Orbital period
100.23 mins
BSTAR
0.00011425
Loading maneuver chart data...
Computing Atmospheric mass density...
Loading historical data...
Loading historical data...
Loading historical data...
Loading historical data...
Loading historical data...
Loading historical data...
Loading historical data...

Documentation

Showing up to 5 results
|